Idabel, OK

12:36 PM CDT on July 27, 2017 (GMT -0500)
Idabel

Weather History for K4O4 - May, 2013

Change the Weather History Date:

Thursday, May 30, 2013

  Actual Average (KPRX) Record (KPRX)
Temperature  
Mean Temperature 76 °F -  
Max Temperature 82 °F 82 °F 98 °F (2003)
Min Temperature 71 °F 64 °F 60 °F (2017)
Cooling Degree Days 12    
Growing Degree Days 26 (Base 50)    
Moisture  
Dew Point 69 °F    
Average Humidity 78    
Maximum Humidity 88    
Minimum Humidity 69    
Precipitation  
Precipitation 0.02 in - - ()
Sea Level Pressure  
Sea Level Pressure 29.81 in    
Wind  
Wind Speed 11 mph (SSE)    
Max Wind Speed 21 mph    
Max Gust Speed 29 mph    
Visibility 10 miles    
Events      
Averages and records for this station are not official NWS values.
T = Trace of Precipitation, MM = Missing Value Source: NWS Daily Summary

Daily Weather History Graph

Daily Weather History Graph

Search for Another Location

Airport or City:

Trip Planner

Search our weather history database for the weather conditions in past years. The results will help you decide how hot, cold, wet, or windy it might be!

Date:

Astronomy

May. 30, 2013 Rise Set
Actual Time 6:10 AM CDT 8:24 PM CDT
Civil Twilight 5:41 AM CDT 8:52 PM CDT
Nautical Twilight 5:06 AM CDT 9:27 PM CDT
Astronomical Twilight 4:28 AM CDT 10:05 PM CDT
Moon 12:35 AM CDT (5/30) 12:08 PM CDT (5/30)
Length of Visible Light 15h 11m
Length of Day
14h 14m
Waning Gibbous, 62% of the Moon is Illuminated
May 30
Waning Gibbous
May 31
Last Quarter
Jun 8
New
Jun 16
First Quarter
Jun 23
Full

Hourly Weather History & Observations

Time (CDT) Temp. Heat Index Dew Point Humidity Pressure Visibility Wind Dir Wind Speed Gust Speed Precip Events Conditions
12:15 AM 73.4 °F - 64.4 °F 73% 29.84 in 10.0 mi SSE 12.7 mph 16.1 mph N/A   Clear
12:35 AM 73.4 °F - 64.4 °F 73% 29.83 in 10.0 mi SSE 10.4 mph 19.6 mph N/A   Clear
12:55 AM 73.4 °F - 64.4 °F 73% 29.84 in 10.0 mi SSE 10.4 mph 18.4 mph N/A   Clear
1:15 AM 73.4 °F - 64.4 °F 73% 29.84 in 10.0 mi South 9.2 mph - N/A   Clear
1:35 AM 73.4 °F - 64.4 °F 73% 29.84 in 10.0 mi SSE 8.1 mph - N/A   Clear
1:55 AM 73.4 °F - 64.4 °F 73% 29.83 in 10.0 mi SE 6.9 mph - N/A   Clear
2:15 AM 71.6 °F - 64.4 °F 78% 29.82 in 10.0 mi SSE 9.2 mph - N/A   Clear
2:35 AM 71.6 °F - 66.2 °F 83% 29.82 in 10.0 mi SSE 8.1 mph - N/A   Clear
2:55 AM 71.6 °F - 66.2 °F 83% 29.82 in 10.0 mi SSE 9.2 mph - N/A   Clear
3:15 AM 71.6 °F - 66.2 °F 83% 29.82 in 10.0 mi SSE 10.4 mph - N/A   Clear
3:35 AM 71.6 °F - 66.2 °F 83% 29.82 in 10.0 mi SSE 5.8 mph - N/A   Clear
3:55 AM 71.6 °F - 66.2 °F 83% 29.82 in 10.0 mi SSE 11.5 mph 17.3 mph N/A   Scattered Clouds
4:15 AM 71.6 °F - 68.0 °F 88% 29.82 in 10.0 mi SSE 10.4 mph 18.4 mph N/A   Scattered Clouds
4:35 AM 71.6 °F - 68.0 °F 88% 29.82 in 10.0 mi SSE 9.2 mph - N/A   Mostly Cloudy
4:55 AM 71.6 °F - 68.0 °F 88% 29.83 in 10.0 mi SSE 9.2 mph - N/A   Overcast
5:15 AM 71.6 °F - 68.0 °F 88% 29.83 in 10.0 mi SSE 8.1 mph - N/A   Overcast
5:35 AM 71.6 °F - 68.0 °F 88% 29.83 in 10.0 mi SE 8.1 mph - N/A   Overcast
5:55 AM 71.6 °F - 68.0 °F 88% 29.83 in 10.0 mi SSE 6.9 mph - N/A   Overcast
6:15 AM 71.6 °F - 68.0 °F 88% 29.84 in 10.0 mi SSE 8.1 mph - N/A   Overcast
6:35 AM 71.6 °F - 68.0 °F 88% 29.85 in 10.0 mi SSE 9.2 mph - N/A   Overcast
6:55 AM 71.6 °F - 68.0 °F 88% 29.85 in 10.0 mi SSE 10.4 mph - N/A   Mostly Cloudy
7:15 AM 71.6 °F - 68.0 °F 88% 29.85 in 10.0 mi SSE 8.1 mph - N/A   Scattered Clouds
7:35 AM 71.6 °F - 68.0 °F 88% 29.85 in 10.0 mi SSE 10.4 mph - N/A   Scattered Clouds
7:55 AM 73.4 °F - 68.0 °F 83% 29.85 in 10.0 mi SSE 9.2 mph - N/A   Scattered Clouds
8:15 AM 73.4 °F - 68.0 °F 83% 29.86 in 10.0 mi SE 10.4 mph 16.1 mph N/A   Scattered Clouds
8:35 AM 73.4 °F - 68.0 °F 83% 29.87 in 10.0 mi SE 10.4 mph - N/A   Mostly Cloudy
8:55 AM 73.4 °F - 68.0 °F 83% 29.87 in 10.0 mi SSE 10.4 mph 16.1 mph N/A   Overcast
9:15 AM 73.4 °F - 68.0 °F 83% 29.87 in 10.0 mi SSE 12.7 mph - N/A   Overcast
9:35 AM 75.2 °F - 68.0 °F 78% 29.87 in 10.0 mi SSE 10.4 mph - N/A   Overcast
9:55 AM 75.2 °F - 68.0 °F 78% 29.87 in 10.0 mi SSE 9.2 mph 16.1 mph N/A   Overcast
10:15 AM 75.2 °F - 68.0 °F 78% 29.87 in 10.0 mi SSE 11.5 mph 17.3 mph N/A   Overcast
10:35 AM 75.2 °F - 68.0 °F 78% 29.85 in 10.0 mi SSE 13.8 mph 21.9 mph N/A   Mostly Cloudy
10:55 AM 77.0 °F - 69.8 °F 78% 29.85 in 10.0 mi SSE 12.7 mph 24.2 mph N/A   Mostly Cloudy
11:15 AM 77.0 °F - 69.8 °F 78% 29.85 in 10.0 mi SSE 11.5 mph 18.4 mph N/A   Mostly Cloudy
11:35 AM 78.8 °F - 69.8 °F 74% 29.85 in 10.0 mi SSE 13.8 mph 17.3 mph N/A   Mostly Cloudy
11:55 AM 78.8 °F - 69.8 °F 74% 29.85 in 10.0 mi South 12.7 mph 19.6 mph N/A   Scattered Clouds
12:15 PM 78.8 °F - 69.8 °F 74% 29.85 in 10.0 mi SSE 12.7 mph 21.9 mph N/A   Scattered Clouds
12:35 PM 80.6 °F 83.9 °F 69.8 °F 70% 29.85 in 10.0 mi South 13.8 mph 19.6 mph N/A   Scattered Clouds
12:55 PM 80.6 °F 83.9 °F 69.8 °F 70% 29.85 in 10.0 mi South 13.8 mph - N/A   Mostly Cloudy
1:15 PM 80.6 °F 83.9 °F 69.8 °F 70% 29.83 in 10.0 mi South 13.8 mph 19.6 mph N/A   Mostly Cloudy
1:35 PM 80.6 °F 83.9 °F 69.8 °F 70% 29.81 in 10.0 mi South 17.3 mph - N/A   Scattered Clouds
1:55 PM 78.8 °F - 68.0 °F 69% 29.80 in 10.0 mi SSE 12.7 mph 20.7 mph N/A   Scattered Clouds
2:15 PM 78.8 °F - 69.8 °F 74% 29.79 in 10.0 mi SSE 8.1 mph - N/A   Scattered Clouds
2:35 PM 77.0 °F - 69.8 °F 78% 29.79 in 10.0 mi SSE 12.7 mph - N/A   Mostly Cloudy
2:55 PM 78.8 °F - 69.8 °F 74% 29.77 in 10.0 mi SSE 16.1 mph 21.9 mph N/A   Scattered Clouds
3:15 PM 80.6 °F 83.9 °F 69.8 °F 70% 29.76 in 10.0 mi South 11.5 mph 17.3 mph N/A   Scattered Clouds
3:35 PM 78.8 °F - 69.8 °F 74% 29.77 in 4.0 mi South 9.2 mph - 0.02 in   Mostly Cloudy
3:55 PM 77.0 °F - 69.8 °F 78% 29.77 in 10.0 mi South 10.4 mph - 0.02 in   Mostly Cloudy
4:15 PM 77.0 °F - 71.6 °F 83% 29.77 in 10.0 mi South 9.2 mph - N/A   Clear
4:35 PM 78.8 °F - 71.6 °F 78% 29.75 in 10.0 mi South 8.1 mph - N/A   Clear
4:55 PM 78.8 °F - 71.6 °F 78% 29.76 in 10.0 mi South 4.6 mph - N/A   Scattered Clouds
5:15 PM 78.8 °F - 71.6 °F 78% 29.76 in 10.0 mi South 5.8 mph - N/A   Scattered Clouds
5:35 PM 80.6 °F 84.6 °F 71.6 °F 74% 29.75 in 10.0 mi South 5.8 mph - N/A   Scattered Clouds
5:55 PM 80.6 °F 84.6 °F 71.6 °F 74% 29.74 in 10.0 mi South 9.2 mph - N/A   Scattered Clouds
6:15 PM 80.6 °F 84.6 °F 71.6 °F 74% 29.74 in 10.0 mi South 8.1 mph - N/A   Scattered Clouds
6:35 PM 80.6 °F 84.6 °F 71.6 °F 74% 29.74 in 10.0 mi South 8.1 mph - N/A   Scattered Clouds
6:55 PM 82.4 °F 87.2 °F 71.6 °F 70% 29.75 in 10.0 mi South 8.1 mph - N/A   Clear
7:15 PM 80.6 °F 84.6 °F 71.6 °F 74% 29.76 in 10.0 mi South 8.1 mph - N/A   Scattered Clouds
7:35 PM 78.8 °F - 71.6 °F 78% 29.76 in 10.0 mi South 5.8 mph - N/A   Scattered Clouds
7:55 PM 78.8 °F - 71.6 °F 78% 29.77 in 10.0 mi South 5.8 mph - N/A   Scattered Clouds
8:15 PM 78.8 °F - 69.8 °F 74% 29.76 in 10.0 mi SSE 6.9 mph - N/A   Scattered Clouds
8:35 PM 77.0 °F - 69.8 °F 78% 29.75 in 10.0 mi SSE 11.5 mph - N/A   Scattered Clouds
8:55 PM 78.8 °F - 69.8 °F 74% 29.75 in 10.0 mi SSE 12.7 mph - N/A   Scattered Clouds
9:15 PM 78.8 °F - 69.8 °F 74% 29.74 in 10.0 mi SSE 13.8 mph - N/A   Scattered Clouds
9:35 PM 78.8 °F - 69.8 °F 74% 29.74 in 10.0 mi South 13.8 mph - N/A   Clear
9:55 PM 78.8 °F - 69.8 °F 74% 29.77 in 10.0 mi South 16.1 mph 20.7 mph N/A   Clear
10:15 PM 78.8 °F - 69.8 °F 74% 29.77 in 10.0 mi South 13.8 mph 20.7 mph N/A   Clear
10:35 PM 78.8 °F - 69.8 °F 74% 29.79 in 10.0 mi South 16.1 mph 23.0 mph N/A   Clear
10:55 PM 78.8 °F - 69.8 °F 74% 29.79 in 10.0 mi South 15.0 mph 23.0 mph N/A   Clear
11:15 PM 78.8 °F - 69.8 °F 74% 29.78 in 10.0 mi South 18.4 mph 24.2 mph N/A   Clear
11:35 PM 78.8 °F - 69.8 °F 74% 29.78 in 10.0 mi South 18.4 mph 26.5 mph N/A   Clear
11:55 PM 77.0 °F - 69.8 °F 78% 29.77 in 10.0 mi South 20.7 mph 28.8 mph N/A   Clear